Regional Weather Roundup
Issued by NWS Albany, NY

Home | Current Version | Previous Version | Text Only | Print | Product List | Glossary On
Versions: 1 2 3 4 5 6 7 8 9 10 11 12 13 14 15 16 17 18 19 20 21 22 23 24 25 26 27 28 29 30 31 32 33 34 35 36 37 38 39 40 41 42 43 44 45 46 47 48 49 50
000
ASUS41 KALY 291310
RWRALY

NEW YORK STATE HOURLY WEATHER ROUNDUP
NATIONAL WEATHER SERVICE ALBANY NY
900 AM EDT SAT AUG 29 2015

NOTE: "FAIR" INDICATES FEW OR NO CLOUDS BELOW 12,000 FEET WITH NO
SIGNIFICANT WEATHER AND/OR NO OBSTRUCTIONS TO VISIBILITY.

NYZ032-033-038>043-046>054-057>066-NYZ062>081-291400-
EAST


CITY           SKY/WX    TMP DP  RH WIND       PRES   REMARKS
ALBANY         MOSUNNY   63  56  78 CALM      30.21F
GLENS FALLS    MOSUNNY   61  56  83 S6        30.21S
POUGHKEEPSIE   SUNNY     64  56  75 CALM      30.22F
NEWBURGH       SUNNY     64  57  77 CALM      30.24S
MONTGOMERY     SUNNY     62  57  83 S3        30.23S
WHITE PLAINS   SUNNY     71  57  61 NW3       30.22S
ISLIP          MOSUNNY   75  58  55 NW6       30.20S
NEW YORK CITY  MOSUNNY   75  55  49 CALM      30.21S
CENTRAL PARK   SUNNY     73  53  49 CALM      30.24S
$$

NYZ005>009-017-018-044>046-055-056-291400-
CENTRAL


CITY           SKY/WX    TMP DP  RH WIND       PRES   REMARKS
FULTON         MOSUNNY   62  57  83 SE3       30.17S
SYRACUSE       PTSUNNY   65  58  78 NE3       30.17S
ROME           PTSUNNY   62  57  83 SE6       30.20F
ELMIRA         FOG       54  54 100 CALM      30.21S VSB 1/2
BINGHAMTON     MOSUNNY   60  55  83 S5        30.22S
MONTICELLO     SUNNY     57  54  88 CALM      30.25F
$$

NYZ026>034-041>043-291400-
NORTH


CITY           SKY/WX    TMP DP  RH WIND       PRES   REMARKS
WATERTOWN      PTSUNNY   64  57  78 CALM      30.16S
FORT DRUM      NOT AVBL
MASSENA        PTSUNNY   61  56  83 S5        30.17F
SARANAC LAKE   PTSUNNY   60  55  83 S5        30.20S
PLATTSBURGH    MOSUNNY   62  57  83 CALM      30.19R
$$

NYZ001>004-010>016-019>021-291400-
WEST


CITY           SKY/WX    TMP DP  RH WIND       PRES   REMARKS
NIAGARA FALLS  PTSUNNY   61  58  90 CALM      30.16F
BUFFALO        CLOUDY    63  57  81 SE3       30.17S
DUNKIRK        CLOUDY    63  58  83 S8        30.17S
JAMESTOWN      MOSUNNY   57  54  88 S3        30.21S
WELLSVILLE     MOSUNNY   61  57  87 CALM      30.24S
ROCHESTER      MOSUNNY   63  58  83 W7        30.18R
PENN YAN       SUNNY     64  57  78 SW9       30.19S
$$

             KEY
       WCI = WIND CHILL INDEX
       VSB = VISIBILITY
       HX  = HEAT INDEX
$$



USA.gov is the U.S. government's official web portal to all federal, state and local government web resources and services.